949  
ASUS42 KKEY 040110  
RWRKEY  
 
FLORIDA REGIONAL WEATHER ROUNDUP FOR THE FLORIDA KEYS  
NATIONAL WEATHER SERVICE KEY WEST FLORIDA  
900 PM EDT THU SEP 03 2015  
   
..SOUTH FLORIDA AND THE KEYS
 
 
 
CITY SKY/WX TMP DP RH WIND PRES REMARKS
 
FORT MYERS PTCLDY 83 72 69 S7 29.95R  
SW REGIONAL AP PTCLDY 80 69 69 S6 29.95R  
NAPLES PTCLDY 80 71 74 E8 29.96R  
MIAMI CLOUDY 81 74 79 NW5 29.96R  
WEST KENDALL CLOUDY 77 75 93 CALM 29.96R  
HOMESTEAD CLOUDY 81 73 77 NW2 29.95R  
MARATHON CLOUDY 86 74 67 NE3 29.96R HX 94  
BOCA CHICA NAS PTCLDY 86 75 69 CALM 29.95R HX 95  
KEY WEST INTL CLEAR 86 74 67 NE3 29.96R HX 94  
   
..INTERNATIONAL WEATHER
 
 
 
CITY SKY/WX TMP DP RH WIND PRES REMARKS
 
NASSAU BAHAMAS PTCLDY 82 75 78 CALM 29.96R  
CANCUN MEXICO MOCLDY 82 77 83 NE3 29.92R HX 91  
COZUMEL MEXICO PTCLDY 77 77 100 E6 29.91R  
 
ADJACENT COASTAL WATERS...  
 
STATION/POSITION TIME SKY/WX TEMP WIND PRES WAVE
 
AIR SEA DIR/SP/G HT/PER  
(UTC) (F) (DEG/KT/KT) (MB) (FT/S)  
PULASKI SHOAL LI 0000 N/A  
SAND KEY 0050 85 70/ 3 1014.3R  
SOMBRERO KEY NOT AVBL  
LONG KEY 0100 86 90 CALM / 1 1015.4R  
MOLASSES REEF 0100 85 87 CALM / 1 1014.6R  
FOWEY ROCKS 0100 84 87 290/ 7/ 8 1014.4R  
 

 
 
CLICK HERE TO GO TO PREVIOUS BULLETINS.

The Nexlab FL Page Main Text Page